Location: Copper Breaks State Park
(34.1132°N, 99.7492°W)
Time: 05:33:53
(UTC-06:00)

Amateur Radio Satellites - All Passes

Search period start: 24 January 2018 05:03
Search period end: 25 January 2018 05:03
Location: Copper Breaks State Park, 34.1132°N, 99.7492°W

Satellite Date Start Highest point End Downlink Frequencies (MHz)
Time Altitude Azimuth
AO-7 24 Jan 05:05:56 05:13:54 51° 294° (WNW) 05:21:49 .
KKS-1 24 Jan 05:10:37 05:14:58 63° 75° (ENE) 05:19:20 437.445
STARS 24 Jan 05:16:49 05:20:26 26° 70° (ENE) 05:24:03 437.465
FALCONSAT 3 24 Jan 05:17:02 05:20:42 70° 1° (N) 05:24:22 435.103
M-CUBED/EXP-1 PRIME 24 Jan 05:47:17 05:50:34 89° 290° (WNW) 05:53:48 437.505
XW-2C 24 Jan 05:57:30 06:00:18 20° 96° (E) 06:03:06 145.795 - 145.815
LilacSat-2 24 Jan 05:59:51 06:02:56 24° 96° (E) 06:06:00 437.200
KAITUO 1B 24 Jan 06:21:29 06:24:40 27° 97° (E) 06:27:51 145.475/437.950
NUDT-PHONESAT 24 Jan 06:25:31 06:28:44 29° 97° (E) 06:31:55 437.300
DOVE 4 24 Jan 06:25:49 06:29:10 21° 289° (WNW) 06:32:39 437.250
XW-2F 24 Jan 06:29:27 06:33:05 50° 99° (E) 06:36:40 145.980 - 146.000
CUTE-I 24 Jan 06:33:28 06:38:35 45° 100° (E) 06:43:40 437.470
XW-2D 24 Jan 06:42:22 06:46:07 89° 287° (WNW) 06:49:51 145.860 - 145.880
STARS 24 Jan 06:53:18 06:56:40 22° 264° (W) 07:00:04 437.465
FALCONSAT 3 24 Jan 06:56:09 06:59:48 65° 196° (SSW) 07:03:26 435.103
HO-68 24 Jan 06:59:47 07:06:26 40° 99° (E) 07:13:02 435.675
XW-2B 24 Jan 07:00:13 07:03:52 52° 284° (WNW) 07:07:29 145.730 - 145.750
RS-15 24 Jan 07:06:01 07:17:29 48° 108° (ESE) 07:28:53 29.354- 29.394
UWE-3 24 Jan 07:06:14 07:08:31 13° 92° (E) 07:10:45 435.000/436.395/437.385
CUBEBUG 2 24 Jan 07:07:19 07:11:22 27° 96° (E) 07:15:20 437.445
STRAND 1 24 Jan 07:09:30 07:14:29 61° 74° (ENE) 07:19:32 437.568
FO-29 24 Jan 07:24:58 07:31:16 42° 72° (ENE) 07:36:54 435.910
XW-2C 24 Jan 07:31:33 07:34:20 20° 289° (WNW) 07:37:06 145.795 - 145.815
SEEDS 24 Jan 07:32:01 07:36:01 45° 99° (E) 07:40:00 437.485
LilacSat-2 24 Jan 07:34:28 07:37:00 17° 290° (WNW) 07:39:30 437.200
CUTE 1.7 + AOD 2 24 Jan 07:52:03 07:56:08 53° 285° (WNW) 08:00:13 437.475
Oscar 11 24 Jan 07:55:30 07:56:47 11° 92° (E) 07:58:05 .
KAITUO 1B 24 Jan 07:56:20 07:58:21 14° 291° (WNW) 08:00:21 145.475/437.950
NUDT-PHONESAT 24 Jan 08:00:24 08:02:14 13° 291° (WNW) 08:04:05 437.300
JUGNU 24 Jan 08:14:04 08:16:24 12° 166° (SSE) 08:18:45 437.505
CUTE-I 24 Jan 08:14:32 08:18:14 19° 294° (WNW) 08:21:56 437.470
FALCONSAT 3 24 Jan 08:36:00 08:38:30 17° 210° (SSW) 08:41:00 435.103
AAUSAT CUBESAT 2 24 Jan 08:37:12 08:41:17 68° 284° (WNW) 08:45:21 437.432
BEESAT 3 24 Jan 08:37:34 08:41:24 49° 115° (ESE) 08:45:16 437.485
PCSat 24 Jan 08:38:10 08:42:57 33° 109° (ESE) 08:47:46 145.827
UWE-3 24 Jan 08:40:42 08:45:10 47° 286° (WNW) 08:49:32 435.000/436.395/437.385
TIGRISAT 24 Jan 08:42:46 08:45:36 17° 67° (ENE) 08:48:28 435.000
CUBEBUG 2 24 Jan 08:43:56 08:47:48 25° 290° (WNW) 08:51:38 437.445
HO-68 24 Jan 08:47:41 08:53:57 34° 294° (WNW) 09:00:11 435.675
STRAND 1 24 Jan 08:51:58 08:54:00 12° 268° (W) 08:56:04 437.568
XW-2A 24 Jan 08:53:27 08:56:35 39° 285° (WNW) 08:59:42 145.665 - 145.685
ZACube-1 24 Jan 08:55:38 09:00:06 64° 284° (WNW) 09:04:27 437.345
UNISAT 6 24 Jan 08:58:03 09:01:49 27° 70° (ENE) 09:05:39 437.425
AO-73 24 Jan 08:59:57 09:04:26 65° 284° (WNW) 09:08:46 145.935
SEEDS 24 Jan 09:09:43 09:11:14 12° 293° (WNW) 09:12:46 437.485
FO-29 24 Jan 09:10:40 09:16:18 27° 263° (W) 09:21:27 435.910
RS-15 24 Jan 09:18:07 09:29:54 49° 308° (NW) 09:41:36 29.354- 29.394
YUBILEINY 24 Jan 09:25:36 09:32:57 29° 73° (ENE) 09:40:14 435.215
Oscar 11 24 Jan 09:28:59 09:33:08 48° 286° (WNW) 09:37:16 .
BEESAT 2 24 Jan 09:34:58 09:38:50 53° 116° (ESE) 09:42:47 435.950
PRISM 24 Jan 09:36:06 09:38:02 13° 67° (ENE) 09:39:56 437.425
JUGNU 24 Jan 10:00:43 10:04:41 19° 176° (S) 10:08:39 437.505
Max Valier Satellite 24 Jan 10:03:05 10:06:34 40° 99° (E) 10:10:01 145.860
DELFI C3 24 Jan 10:12:10 10:16:06 89° 283° (WNW) 10:20:03 145.870
EO-88 24 Jan 10:12:34 10:15:51 32° 98° (E) 10:19:06 145.990 - 145.960
BEESAT 3 24 Jan 10:17:17 10:19:10 13° 311° (NW) 10:21:04 437.485
TIGRISAT 24 Jan 10:17:49 10:21:55 37° 262° (W) 10:26:08 435.000
PCSat 24 Jan 10:21:40 10:26:18 28° 304° (NW) 10:30:58 145.827
UNISAT 6 24 Jan 10:35:00 10:38:27 22° 265° (W) 10:41:58 437.425
O/OREOS (USA 219) 24 Jan 10:35:41 10:40:08 71° 252° (WSW) 10:44:35 437.305
QB50P2 24 Jan 10:41:52 10:43:17 12° 66° (ENE) 10:44:44 145.880/145.840
DUCHIFAT 1 24 Jan 11:04:10 11:06:21 14° 67° (ENE) 11:08:31 145.980
PRISM 24 Jan 11:09:06 11:12:54 39° 261° (W) 11:16:43 437.425
EO-79 24 Jan 11:09:16 11:12:31 22° 70° (ENE) 11:15:47 145.935-145.965
BEESAT 2 24 Jan 11:15:05 11:16:51 12° 311° (NW) 11:18:37 435.950
LO-87 24 Jan 11:19:23 11:22:27 25° 97° (E) 11:25:28 145.935 - 145.965
AIST 2D 24 Jan 11:19:43 11:23:13 65° 259° (W) 11:26:42 435.315
YUBILEINY 24 Jan 11:21:40 11:29:59 51° 270° (W) 11:38:15 435.215
Max Valier Satellite 24 Jan 11:39:34 11:39:56 10° 293° (WNW) 11:40:17 145.860
RS-15 24 Jan 11:39:36 11:46:27 16° 337° (NNW) 11:53:12 29.354- 29.394
AO-85 24 Jan 11:40:04 11:43:53 51° 301° (WNW) 11:47:57 145.980
POLYITAN 1 24 Jan 11:44:18 11:48:27 58° 75° (ENE) 11:52:39 437.675
EO-88 24 Jan 11:47:42 11:49:07 12° 291° (WNW) 11:50:32 145.990 - 145.960
JUGNU 24 Jan 11:49:07 11:53:00 18° 186° (S) 11:56:53 437.505
NANOSAT C BR1 24 Jan 11:56:01 12:00:12 71° 76° (ENE) 12:04:26 145.865
QB50P2 24 Jan 12:14:28 12:18:34 50° 260° (W) 12:22:43 145.880/145.840
SRMSAT 24 Jan 12:16:58 12:20:41 17° 171° (S) 12:24:25 437.500
ESTCUBE 1 24 Jan 12:18:45 12:23:14 74° 284° (WNW) 12:27:40 437.505/2401.250
DUCHIFAT 1 24 Jan 12:37:39 12:41:35 40° 261° (W) 12:45:35 145.980
EO-79 24 Jan 12:44:38 12:48:06 25° 264° (W) 12:51:36 145.935-145.965
LO-87 24 Jan 12:53:25 12:55:34 15° 290° (WNW) 12:57:43 145.935 - 145.965
Oscar 19 24 Jan 12:54:21 12:59:07 38° 71° (ENE) 13:03:54 437.125/150
SPROUT 24 Jan 13:02:28 13:06:47 77° 102° (ESE) 13:11:04 437.525
Gurwin Techsat 1B 24 Jan 13:12:11 13:17:10 43° 71° (ENE) 13:22:09 435.225
BUGSAT 1 24 Jan 13:22:53 13:26:54 58° 260° (W) 13:30:58 437.445
SO-50 24 Jan 13:29:19 13:33:32 31° 55° (NE) 13:37:47 436.795
VELOX 1 24 Jan 13:36:40 13:41:05 85° 282° (WNW) 13:45:30 145.980
JUGNU 24 Jan 13:39:30 13:41:16 11° 195° (SSW) 13:43:01 437.505
DX 1 24 Jan 13:41:16 13:44:04 17° 95° (E) 13:46:52 434.975-435.025
AO-91 24 Jan 13:48:05 13:51:16 40° 261° (W) 13:54:35 145.960
RS-15 24 Jan 14:01:08 14:06:35 14° 16° (NNE) 14:11:53 29.354- 29.394
SRMSAT 24 Jan 14:04:58 14:09:11 20° 181° (S) 14:13:24 437.500
AO-7 24 Jan 14:08:57 14:16:04 33° 62° (ENE) 14:23:12 .
50 SAT 24 Jan 14:24:18 14:27:21 49° 101° (E) 14:30:21 437.505
MOZHAYETS 4 24 Jan 14:33:08 14:33:44 10° 91° (E) 14:34:19
Oscar 19 24 Jan 14:34:35 14:38:29 21° 265° (W) 14:42:23 437.125/150
Gurwin Techsat 1B 24 Jan 14:53:28 14:57:13 19° 266° (W) 15:00:59 435.225
UKube-1 24 Jan 14:55:16 14:59:35 76° 101° (E) 15:03:52 .
NO-84 24 Jan 14:57:10 14:59:55 23° 127° (SE) 15:02:31 435.350 FM
SO-50 24 Jan 15:09:59 15:13:50 25° 249° (WSW) 15:17:44 436.795
BEESAT 24 Jan 15:15:30 15:18:46 18° 95° (E) 15:22:01 436.000
DX 1 24 Jan 15:16:21 15:20:16 34° 288° (WNW) 15:24:12 434.975-435.025
ITAMSAT 1 24 Jan 15:48:11 15:53:20 89° 256° (WSW) 15:58:32 435.822/435.867
DOVE 4 24 Jan 15:50:40 15:53:37 19° 70° (ENE) 15:56:30 437.250
SRMSAT 24 Jan 15:54:20 15:57:40 15° 191° (SSW) 16:01:00 437.500
AO-7 24 Jan 16:00:23 16:08:25 51° 258° (WSW) 16:16:31 .
MOZHAYETS 4 24 Jan 16:06:39 16:11:11 60° 285° (WNW) 16:15:42
RS-15 24 Jan 16:13:00 16:23:48 40° 48° (NE) 16:34:01 29.354- 29.394
ITUPSAT 1 24 Jan 16:15:04 16:19:54 83° 101° (E) 16:24:42 437.325
CUBESAT XI-V 24 Jan 16:20:49 16:25:12 42° 99° (E) 16:29:31 437.345
M-CUBED/EXP-1 PRIME 24 Jan 16:28:17 16:32:32 60° 72° (ENE) 16:36:31 437.505
NO-84 24 Jan 16:34:30 16:37:01 21° 318° (NW) 16:39:24 435.350 FM
BEESAT 24 Jan 16:52:11 16:56:37 38° 288° (WNW) 17:01:00 436.000
KKS-1 24 Jan 17:06:21 17:09:07 16° 94° (E) 17:11:53 437.445
XW-2F 24 Jan 17:07:36 17:09:44 15° 69° (ENE) 17:11:52 145.980 - 146.000
XW-2D 24 Jan 17:19:59 17:23:05 24° 72° (ENE) 17:26:11 145.860 - 145.880
HO-68 24 Jan 17:26:00 17:30:58 21° 61° (ENE) 17:35:56 435.675
DOVE 4 24 Jan 17:27:27 17:31:07 28° 263° (W) 17:34:42 437.250
PCSat 24 Jan 17:30:52 17:33:39 14° 49° (NE) 17:36:25 145.827
XW-2B 24 Jan 17:37:14 17:40:47 38° 74° (ENE) 17:44:21 145.730 - 145.750
CUTE-I 24 Jan 17:51:31 17:56:38 51° 73° (ENE) 18:01:46 437.470
BEESAT 2 24 Jan 17:57:49 17:59:06 11° 48° (NE) 18:00:21 435.950
CUBESAT XI-V 24 Jan 17:59:28 18:02:09 16° 293° (WNW) 18:04:50 437.345
CUBEBUG 2 24 Jan 18:02:53 18:05:15 14° 66° (ENE) 18:07:38 437.445
XW-2C 24 Jan 18:07:34 18:11:23 77° 259° (WSW) 18:15:13 145.795 - 145.815
ISS 24 Jan 18:09:05 18:10:44 13° 127° (SE) 18:12:23 437.550
LilacSat-2 24 Jan 18:10:56 18:14:45 62° 260° (W) 18:18:34 437.200
SEEDS 24 Jan 18:20:28 18:23:32 20° 70° (ENE) 18:26:35 437.485
RS-15 24 Jan 18:25:27 18:36:31 56° 250° (WSW) 18:47:05 29.354- 29.394
KAITUO 1B 24 Jan 18:30:25 18:34:06 54° 260° (W) 18:37:47 145.475/437.950
NUDT-PHONESAT 24 Jan 18:33:23 18:37:02 53° 260° (W) 18:40:41 437.300
BEESAT 3 24 Jan 18:34:39 18:38:30 65° 244° (WSW) 18:42:17 437.485
XW-2F 24 Jan 18:40:10 18:43:31 29° 263° (W) 18:46:53 145.980 - 146.000
CUTE 1.7 + AOD 2 24 Jan 18:40:16 18:44:28 62° 76° (ENE) 18:48:41 437.475
KKS-1 24 Jan 18:41:38 18:45:44 37° 288° (WNW) 18:49:51 437.445
STARS 24 Jan 18:44:51 18:49:18 86° 103° (ESE) 18:53:44 437.465
XW-2D 24 Jan 18:54:32 18:57:10 18° 265° (W) 18:59:48 145.860 - 145.880
HO-68 24 Jan 19:10:55 19:18:01 67° 257° (WSW) 19:25:09 435.675
PCSat 24 Jan 19:12:13 19:17:39 78° 246° (WSW) 19:23:02 145.827
nSIGHT-1 24 Jan 19:12:44 19:15:50 58° 319° (NW) 19:18:57 .
XW-2B 24 Jan 19:13:59 19:15:04 11° 267° (W) 19:16:10 145.730 - 145.750
XW-2A 24 Jan 19:20:23 19:23:21 28° 73° (ENE) 19:26:20 145.665 - 145.685
AAUSAT CUBESAT 2 24 Jan 19:23:06 19:27:01 43° 74° (ENE) 19:30:56 437.432
STRAND 1 24 Jan 19:24:09 19:28:33 28° 97° (E) 19:32:57 437.568
UWE-3 24 Jan 19:33:00 19:37:26 85° 75° (ENE) 19:42:02 435.000/436.395/437.385
BEESAT 2 24 Jan 19:33:14 19:37:10 59° 244° (WSW) 19:41:01 435.950
CUTE-I 24 Jan 19:33:45 19:36:54 16° 267° (W) 19:40:05 437.470
CUBEBUG 2 24 Jan 19:37:11 19:41:22 44° 262° (W) 19:45:44 437.445
ISS 24 Jan 19:43:47 19:46:54 42° 321° (NW) 19:50:01 437.550
ZACube-1 24 Jan 19:46:50 19:51:13 60° 76° (ENE) 19:55:42 437.345
AO-73 24 Jan 19:50:51 19:55:13 58° 75° (ENE) 19:59:41 145.935
SEEDS 24 Jan 19:55:25 19:59:00 27° 263° (W) 20:02:35 437.485
AO-85 24 Jan 20:13:35 20:18:28 46° 58° (ENE) 20:23:33 145.980
Oscar 11 24 Jan 20:19:18 20:23:38 76° 77° (ENE) 20:27:59 .
FO-29 24 Jan 20:22:35 20:27:33 44° 100° (E) 20:32:45 435.910
Max Valier Satellite 24 Jan 20:40:13 20:41:17 11° 68° (ENE) 20:42:21 145.860
DELFI C3 24 Jan 20:53:41 20:57:02 28° 72° (ENE) 21:00:22 145.870
XW-2A 24 Jan 20:54:57 20:56:04 11° 266° (W) 20:57:11 145.665 - 145.685
AAUSAT CUBESAT 2 24 Jan 21:01:18 21:02:37 11° 268° (W) 21:03:57 437.432
STRAND 1 24 Jan 21:03:15 21:07:36 28° 291° (WNW) 21:11:57 437.568
AO-73 24 Jan 21:31:12 21:31:45 10° 269° (W) 21:32:19 145.935
AO-85 24 Jan 21:54:55 21:58:36 20° 251° (WSW) 22:02:23 145.980
FO-29 24 Jan 22:08:58 22:12:20 18° 293° (WNW) 22:15:48 435.910
Max Valier Satellite 24 Jan 22:11:10 22:14:40 38° 261° (W) 22:18:12 145.860
TIGRISAT 24 Jan 22:12:25 22:17:04 60° 100° (E) 22:21:39 435.000
EO-88 24 Jan 22:19:04 22:22:35 48° 260° (W) 22:26:09 145.990 - 145.960
YUBILEINY 24 Jan 22:21:29 22:29:25 39° 87° (E) 22:37:17 435.215
UNISAT 6 24 Jan 22:28:56 22:33:38 80° 283° (WNW) 22:38:17 437.425
DELFI C3 24 Jan 22:29:18 22:31:44 16° 266° (W) 22:34:10 145.870
AIST 2D 24 Jan 22:50:05 22:51:03 11° 93° (E) 22:52:02 435.315
PRISM 24 Jan 22:53:39 22:57:22 33° 98° (E) 23:01:04 437.425
O/OREOS (USA 219) 24 Jan 23:06:08 23:09:28 20° 101° (E) 23:12:46 437.305
NO-84 24 Jan 23:09:09 23:11:35 25° 43° (NE) 23:14:05 435.350 FM
ESTCUBE 1 24 Jan 23:14:03 23:18:31 62° 75° (ENE) 23:22:58 437.505/2401.250
LO-87 24 Jan 23:23:45 23:27:17 69° 259° (W) 23:30:51 145.935 - 145.965
POLYITAN 1 24 Jan 23:34:31 23:36:26 13° 93° (E) 23:38:21 437.675
NANOSAT C BR1 24 Jan 23:45:13 23:47:42 15° 94° (E) 23:50:10 145.865
TIGRISAT 24 Jan 23:51:24 23:53:09 12° 295° (WNW) 23:54:55 435.000
SPROUT 24 Jan 23:51:53 23:55:43 34° 72° (ENE) 23:59:34 437.525
QB50P2 25 Jan 00:02:57 00:06:50 33° 98° (E) 00:10:40 145.880/145.840
YUBILEINY 25 Jan 00:17:56 00:26:02 40° 284° (WNW) 00:34:09 435.215
AIST 2D 25 Jan 00:21:12 00:24:15 29° 286° (WNW) 00:27:18 435.315
DUCHIFAT 1 25 Jan 00:24:55 00:28:55 39° 98° (E) 00:32:52 145.980
VELOX 1 25 Jan 00:29:51 00:34:05 51° 74° (ENE) 00:38:19 145.980
PRISM 25 Jan 00:29:53 00:32:18 15° 292° (WNW) 00:34:44 437.425
EO-79 25 Jan 00:31:51 00:36:07 68° 101° (E) 00:40:21 145.935-145.965
O/OREOS (USA 219) 25 Jan 00:44:41 00:48:37 29° 295° (WNW) 00:52:34 437.305
NO-84 25 Jan 00:46:51 00:48:33 14° 235° (SW) 00:50:17 435.350 FM
POLYITAN 1 25 Jan 01:08:19 01:12:22 42° 286° (WNW) 01:16:23 437.675
BUGSAT 1 25 Jan 01:08:27 01:12:01 25° 97° (E) 01:15:33 437.445
Oscar 19 25 Jan 01:10:38 01:14:03 18° 94° (E) 01:17:25 437.125/150
NANOSAT C BR1 25 Jan 01:19:34 01:23:28 36° 287° (WNW) 01:27:20 145.865
FALCONSAT 3 25 Jan 01:25:28 01:28:25 23° 152° (SSE) 01:31:23 435.103
SPROUT 25 Jan 01:29:02 01:31:38 16° 266° (W) 01:34:15 437.525
Gurwin Techsat 1B 25 Jan 01:32:43 01:36:51 23° 95° (E) 01:40:58 435.225
AO-91 25 Jan 01:39:20 01:43:58 45° 100° (E) 01:48:58 145.960
QB50P2 25 Jan 01:39:31 01:42:18 17° 292° (WNW) 01:45:05 145.880/145.840
nSIGHT-1 25 Jan 01:42:27 01:45:07 24° 36° (NE) 01:47:48 .
UKube-1 25 Jan 01:45:51 01:49:49 38° 72° (ENE) 01:53:48 .
DUCHIFAT 1 25 Jan 02:01:52 02:04:11 15° 293° (WNW) 02:06:29 145.980
DX 1 25 Jan 02:07:23 02:11:40 65° 258° (WSW) 02:15:59 434.975-435.025
VELOX 1 25 Jan 02:09:29 02:10:44 11° 267° (W) 02:12:00 145.980
ISS 25 Jan 02:14:30 02:17:31 34° 38° (NE) 02:20:31 437.550
50 SAT 25 Jan 02:16:06 02:18:59 39° 260° (W) 02:21:54 437.505
BEESAT 25 Jan 02:19:06 02:21:40 15° 65° (ENE) 02:24:14 436.000
BUGSAT 1 25 Jan 02:43:56 02:47:10 21° 290° (WNW) 02:50:24 437.445
Oscar 19 25 Jan 02:48:37 02:53:30 44° 288° (WNW) 02:58:21 437.125/150
FALCONSAT 3 25 Jan 03:03:32 03:07:13 78° 166° (SSE) 03:10:54 435.103
MOZHAYETS 4 25 Jan 03:04:08 03:08:46 82° 77° (ENE) 03:13:26
Gurwin Techsat 1B 25 Jan 03:11:59 03:16:49 37° 289° (WNW) 03:21:39 435.225
AO-91 25 Jan 03:16:55 03:20:05 18° 291° (WNW) 03:23:24 145.960
ITUPSAT 1 25 Jan 03:17:48 03:22:30 62° 74° (ENE) 03:27:15 437.325
nSIGHT-1 25 Jan 03:18:36 03:21:12 23° 230° (SW) 03:23:48 .
CUBESAT XI-V 25 Jan 03:20:27 03:24:25 28° 71° (ENE) 03:28:22 437.345
UKube-1 25 Jan 03:23:33 03:25:56 14° 266° (W) 03:28:18 .
SO-50 25 Jan 03:40:42 03:44:05 21° 110° (ESE) 03:47:29 436.795
ISS 25 Jan 03:51:33 03:53:47 17° 232° (SW) 03:56:00 437.550
BEESAT 25 Jan 03:54:20 03:58:57 50° 260° (W) 04:03:36 436.000
ITAMSAT 1 25 Jan 04:04:54 04:09:51 43° 100° (E) 04:14:48 435.822/435.867
AO-7 25 Jan 04:05:50 04:14:12 71° 105° (ESE) 04:22:28 .
FALCONSAT 3 25 Jan 04:42:41 04:46:21 69° 1° (N) 04:50:02 435.103
ITUPSAT 1 25 Jan 04:59:35 05:00:39 11° 268° (W) 05:01:43 437.325
